Flag for Russia Weather past 2 weeks in Surgut, Russia

Now
54 °F

Scattered clouds.


Feels Like: 53 °F
Forecast: 51 / 60 °F
Wind: 3 mph from Northeast

Location: Surgut Airport

Current Time: Jul 7, 2015 at 10:48:54 AM

Latest Report: Jul 7, 2015 at 10:30 AM


Visibility: 4 mi

Pressure: 29.36 "Hg

Humidity: 88%

Dew point: 50 °F

Location of SurgutLocation

Historic Weather in Surgut — Graph

°F

Surgut temperature yesterday

Maximum temperature yesterday: 61 °F (at 9:30 AM)
Minimum temperature yesterday: 48 °F (at 1:30 AM)
Average temperature yesterday: 55 °F

Past Weeks' High & Low Weather Summary

 TemperatureHumidityPressure
High86 °F (Jun 29, 3:00 PM)100% (Jun 24, 2:00 AM)30.15 "Hg (Jun 24, 2:00 AM)
Low37 °F (Jul 5, 2:30 AM)33% (Jun 29, 3:30 PM)29.00 "Hg (Jul 3, 2:30 PM)
Average63 °F71%29.73 "Hg
* Reported Jun 22 9:00 AM — Jul 7 9:30 AM, Surgut, Weather by CustomWeather, © 2015

Note: Actual official high and low records may vary slightly from our data, if they occured in-between our weather recording intervals... More about our weather records

Advertising

Surgut weather history for previous 24 hours

 ConditionsComfort  
Time TempWeatherWind HumidityBarometerVisibility
9:30 AM
Tue, Jul 7
54 °FBroken clouds.3 mph94%29.36 "Hg4 mi
9:00 AM52 °FBroken clouds.3 mph100%29.36 "Hg4 mi
8:30 AM54 °FSprinkles. Partly sunny.3 mph88%29.36 "Hg4 mi
8:00 AM54 °FPartly sunny.3 mph94%29.36 "Hg4 mi
7:30 AM54 °FPartly sunny.3 mph94%29.36 "Hg4 mi
7:00 AM52 °FPartly sunny.3 mph100%29.36 "Hg4 mi
6:30 AM52 °FPartly sunny.3 mph94%29.36 "Hg4 mi
6:00 AM52 °FSprinkles. Partly sunny.3 mph100%29.36 "Hg4 mi
5:30 AM52 °FSprinkles. Fog.6 mph100%29.36 "Hg3 mi
5:00 AM52 °FSprinkles. Fog.6 mph94%29.36 "Hg2 mi
4:30 AM52 °FSprinkles. Fog.6 mph94%29.39 "Hg1 mi
4:00 AM52 °FSprinkles. Partly sunny.8 mph94%29.39 "Hg2 mi
3:30 AM52 °FSprinkles. Passing clouds.13 mph94%29.39 "Hg2 mi
2:30 AM52 °FSprinkles. Passing clouds.13 mph94%29.39 "Hg3 mi
2:00 AM52 °FSprinkles. Passing clouds.13 mph94%29.39 "Hg3 mi
1:30 AM52 °FSprinkles. Passing clouds.10 mph94%29.39 "Hg3 mi
1:00 AM52 °FSprinkles. Passing clouds.17 mph94%29.42 "Hg1 mi
12:30 AM52 °FPassing clouds.15 mph88%29.42 "Hg4 mi
12:00 AM52 °FPassing clouds.13 mph88%29.42 "Hg4 mi
11:30 PM
Mon, Jul 6
52 °FSprinkles. Passing clouds.10 mph88%29.45 "Hg4 mi
11:00 PM54 °FSprinkles. Passing clouds.13 mph82%29.45 "Hg4 mi
10:30 PM52 °FPartly sunny.10 mph88%29.45 "Hg4 mi
10:00 PM52 °FPartly sunny.8 mph88%29.47 "Hg4 mi
9:30 PM52 °FSprinkles. Broken clouds.8 mph88%29.47 "Hg4 mi
9:00 PM52 °FBroken clouds.8 mph88%29.50 "Hg4 mi
8:30 PM52 °FSprinkles. Broken clouds.3 mph94%29.50 "Hg4 mi
8:00 PM52 °FSprinkles. Broken clouds.3 mph94%29.53 "Hg4 mi
7:30 PM52 °FPartly sunny.1 mph88%29.53 "Hg4 mi
7:00 PM52 °FBroken clouds.3 mph88%29.53 "Hg4 mi
6:30 PM52 °FSprinkles. Broken clouds.3 mph88%29.56 "Hg4 mi
6:00 PM52 °FSprinkles. Broken clouds.6 mph88%29.56 "Hg4 mi
5:30 PM55 °FSprinkles. Broken clouds.8 mph72%29.53 "Hg4 mi
5:00 PM59 °FPartly sunny.6 mph48%29.53 "Hg4 mi
4:30 PM59 °FPartly sunny.8 mph45%29.53 "Hg4 mi
4:00 PM59 °FPartly sunny.6 mph48%29.53 "Hg4 mi
3:30 PM59 °FPartly sunny.13 mph48%29.53 "Hg4 mi
3:00 PM59 °FPartly sunny.13 mph48%29.53 "Hg4 mi
2:30 PM59 °FPartly sunny.15 mph48%29.53 "Hg4 mi
2:00 PM61 °FPartly sunny.15 mph45%29.56 "Hg4 mi
1:30 PM59 °FPartly sunny.15 mph48%29.56 "Hg4 mi
1:00 PM61 °FPartly sunny.15 mph42%29.56 "Hg4 mi
12:30 PM61 °FPartly sunny.15 mph39%29.56 "Hg4 mi
12:00 PM61 °FClear.15 mph39%29.56 "Hg4 mi
11:30 AM61 °FClear.15 mph36%29.56 "Hg4 mi
11:00 AM59 °FClear.17 mph39%29.56 "Hg4 mi
10:30 AM61 °FClear.17 mph39%29.56 "Hg4 mi
10:00 AM61 °FPartly sunny.13 mph45%29.56 "Hg4 mi
Weather by CustomWeather, © 2015

See weather overviewHow to use our weather pages